FW1419 Weather Reports


Display with metric or nautical units.
time (UTC)temp
F
wind
direction
speed
MPH
gust
MPH
rain 1hr
in
rain 24hr
in
rain mn
in
humidity
%
barometer
mb
20191023075834 63 107 0.0 0.0 0.00 0.00 0.00 29 1015.5
20191023075335 64 139 0.0 0.0 0.00 0.00 0.00 28 1015.6
20191023074821 64 139 0.0 0.0 0.00 0.00 0.00 27 1015.6
20191023074326 64 139 0.0 0.0 0.00 0.00 0.00 27 1015.6
20191023073828 64 138 0.0 0.0 0.00 0.00 0.00 27 1015.6
20191023073330 65 138 0.0 0.0 0.00 0.00 0.00 27 1015.6
20191023072836 65 122 0.0 0.0 0.00 0.00 0.00 27 1015.6
20191023072339 64 130 0.0 0.0 0.00 0.00 0.00 28 1015.7
20191023071821 64 135 0.0 0.0 0.00 0.00 0.00 27 1015.7
20191023071322 65 135 0.0 3.0 0.00 0.00 0.00 27 1015.7
20191023070825 65 140 0.0 3.0 0.00 0.00 0.00 27 1016.0
20191023070326 64 129 0.0 2.0 0.00 0.00 0.00 28 1016.0
20191023065828 63 138 0.0 2.0 0.00 0.00 0.00 29 1016.0
20191023065330 63 123 0.0 0.0 0.00 0.00 0.00 30 1016.2
20191023064837 63 147 0.0 0.0 0.00 0.00 0.00 31 1016.2
20191023064340 63 142 0.0 0.0 0.00 0.00 0.00 30 1016.2
20191023063821 63 142 0.0 0.0 0.00 0.00 0.00 32 1016.3
20191023063324 63 142 0.0 0.0 0.00 0.00 0.00 30 1016.3
20191023062827 63 142 0.0 0.0 0.00 0.00 0.00 30 1016.3
20191023062329 63 142 0.0 0.0 0.00 0.00 0.00 30 1016.2
20191023061831 63 125 0.0 0.0 0.00 0.00 0.00 30 1016.2
20191023061333 64 125 0.0 0.0 0.00 0.00 0.00 29 1016.2
20191023060835 64 125 0.0 0.0 0.00 0.00 0.00 29 1016.5
20191023060337 64 124 0.0 0.0 0.00 0.00 0.00 29 1016.5
20191023055819 64 124 0.0 0.0 0.00 0.00 0.00 29 1016.5
20191023055326 65 124 0.0 0.0 0.00 0.00 0.00 29 1016.6
20191023054831 65 124 0.0 0.0 0.00 0.00 0.00 28 1016.6
20191023054333 65 124 0.0 0.0 0.00 0.00 0.00 27 1016.6
20191023053835 65 124 0.0 0.0 0.00 0.00 0.00 27 1016.6
20191023053337 65 106 0.0 0.0 0.00 0.00 0.00 28 1016.6
20191023052839 65 106 0.0 0.0 0.00 0.00 0.00 28 1016.6
20191023052322 65 106 0.0 0.0 0.00 0.00 0.00 28 1016.8
20191023051824 65 106 0.0 0.0 0.00 0.00 0.00 29 1016.8
20191023051326 65 106 0.0 0.0 0.00 0.00 0.00 28 1016.8
20191023050829 66 105 0.0 0.0 0.00 0.00 0.00 28 1017.0
20191023050331 66 105 0.0 0.0 0.00 0.00 0.00 28 1017.0
20191023045834 66 105 0.0 0.0 0.00 0.00 0.00 28 1017.0
20191023045319 66 105 0.0 0.0 0.00 0.00 0.00 28 1017.2
20191023044822 65 85 0.0 0.0 0.00 0.00 0.00 30 1017.2
20191023044324 65 106 0.0 0.0 0.00 0.00 0.00 31 1017.2
20191023043826 65 106 0.0 0.0 0.00 0.00 0.00 31 1017.1
20191023043331 66 106 0.0 0.0 0.00 0.00 0.00 30 1017.1
20191023042836 66 106 0.0 0.0 0.00 0.00 0.00 30 1017.1
20191023042321 66 106 0.0 0.0 0.00 0.00 0.00 30 1016.8
20191023041824 66 106 0.0 0.0 0.00 0.00 0.00 29 1016.8
20191023041327 66 106 0.0 0.0 0.00 0.00 0.00 30 1016.8
20191023040832 66 106 0.0 0.0 0.00 0.00 0.00 31 1016.2
20191023040322 66 104 0.0 0.0 0.00 0.00 0.00 30 1016.2
20191023035828 67 132 0.0 0.0 0.00 0.00 0.00 29 1016.2
20191023035331 67 132 0.0 0.0 0.00 0.00 0.00 28 1016.1
20191023034901 68 133 0.0 0.0 0.00 0.00 0.00 27 1016.1
20191023034453 68 101 0.0 0.0 0.00 0.00 0.00 27 1016.1
20191023034032 69 101 0.0 1.0 0.00 0.00 0.00 27 1016.0
20191023032839 69 100 0.0 0.0 0.00 0.00 0.00 26 1016.0
20191023032321 70 159 0.0 0.0 0.00 0.00 0.00 25 1015.9
20191023031826 70 163 0.0 0.0 0.00 0.00 0.00 25 1015.9
20191023031329 71 160 0.0 0.0 0.00 0.00 0.00 25 1015.9
20191023030831 71 223 0.0 3.0 0.00 0.00 0.00 24 1016.4
20191023030337 71 116 0.0 3.0 0.00 0.00 0.00 25 1016.4
20191023025819 72 140 0.0 0.0 0.00 0.00 0.00 24 1016.4
20191023025322 72 226 0.0 0.0 0.00 0.00 0.00 24 1016.4
20191023024824 72 76 0.0 0.0 0.00 0.00 0.00 25 1016.4
20191023024327 72 215 0.0 2.0 0.00 0.00 0.00 24 1016.4
20191023023830 72 215 0.0 2.0 0.00 0.00 0.00 24 1016.2
20191023023332 73 221 0.0 2.0 0.00 0.00 0.00 24 1016.2
20191023022835 73 156 0.0 0.0 0.00 0.00 0.00 25 1016.2
20191023022338 74 157 0.0 1.0 0.00 0.00 0.00 25 1015.8
20191023021820 75 142 0.0 1.0 0.00 0.00 0.00 24 1015.8
20191023021322 76 127 0.0 2.0 0.00 0.00 0.00 25 1015.8
20191023020829 77 123 0.0 2.0 0.00 0.00 0.00 24 1015.8
20191023020331 78 123 0.0 0.0 0.00 0.00 0.00 20 1015.8
20191023015833 79 123 0.0 0.0 0.00 0.00 0.00 18 1015.8
20191023015332 80 124 0.0 0.0 0.00 0.00 0.00 18 1015.7
20191023014835 80 126 0.0 0.0 0.00 0.00 0.00 17 1015.7
20191023014338 81 351 0.0 0.0 0.00 0.00 0.00 17 1015.7
20191023013820 81 313 0.0 0.0 0.00 0.00 0.00 16 1015.4
20191023013325 82 263 0.0 1.0 0.00 0.00 0.00 16 1015.4
20191023012828 82 263 0.0 1.0 0.00 0.00 0.00 15 1015.4
20191023012331 82 255 0.0 0.0 0.00 0.00 0.00 15 1015.3
20191023011833 83 255 0.0 0.0 0.00 0.00 0.00 15 1015.3
20191023011320 83 256 0.0 0.0 0.00 0.00 0.00 14 1015.3
20191023010822 84 255 0.0 0.0 0.00 0.00 0.00 14 1014.9
20191023010325 85 256 0.0 0.0 0.00 0.00 0.00 13 1014.9
20191023005828 86 255 0.0 0.0 0.00 0.00 0.00 13 1014.9
20191023005330 87 256 0.0 0.0 0.00 0.00 0.00 12 1015.7
20191023004836 87 269 0.0 2.0 0.00 0.00 0.00 12 1015.7
20191023004338 88 269 0.0 2.0 0.00 0.00 0.00 12 1015.7
20191023003821 89 269 0.0 2.0 0.00 0.00 0.00 12 1015.6
20191023003323 89 261 0.0 3.0 0.00 0.00 0.00 12 1015.6
20191023002826 90 270 0.0 3.0 0.00 0.00 0.00 12 1015.6
20191023002331 90 262 0.0 3.0 0.00 0.00 0.00 12 1015.5
20191023001818 91 267 0.0 2.0 0.00 0.00 0.00 11 1015.5
20191023001323 92 257 0.0 2.0 0.00 0.00 0.00 11 1015.5
20191023000826 92 251 0.0 3.0 0.00 0.00 0.00 11 1015.6
20191023000331 92 260 0.0 3.0 0.00 0.00 0.00 11 1015.6
20191022235833 92 259 1.0 3.0 0.00 0.00 0.00 11 1015.6
20191022235335 93 305 1.0 5.0 0.00 0.00 0.00 11 1015.7
20191022234838 94 286 1.0 4.0 0.00 0.00 0.00 11 1015.7
20191022234320 93 266 0.0 4.0 0.00 0.00 0.00 11 1015.7
20191022233822 93 243 1.0 3.0 0.00 0.00 0.00 11 1015.8
20191022233326 93 247 1.0 2.0 0.00 0.00 0.00 11 1015.8
20191022232829 93 267 0.0 4.0 0.00 0.00 0.00 11 1015.8
20191022232331 93 273 1.0 4.0 0.00 0.00 0.00 11 1016.0
20191022231837 93 203 2.0 8.0 0.00 0.00 0.00 11 1016.0
20191022231339 93 281 2.0 8.0 0.00 0.00 0.00 11 1016.0
20191022230822 93 235 4.0 6.0 0.00 0.00 0.00 11 1016.0
20191022230325 93 252 1.0 4.0 0.00 0.00 0.00 11 1016.0
20191022225827 93 201 2.0 5.0 0.00 0.00 0.00 11 1016.0
20191022225330 93 273 2.0 5.0 0.00 0.00 0.00 11 1016.2
20191022224833 93 251 3.0 4.0 0.00 0.00 0.00 11 1016.2
20191022224335 93 267 1.0 5.0 0.00 0.00 0.00 11 1016.2
20191022223820 93 275 3.0 5.0 0.00 0.00 0.00 11 1016.3
20191022223324 93 301 1.0 5.0 0.00 0.00 0.00 11 1016.3
20191022222828 93 268 3.0 5.0 0.00 0.00 0.00 11 1016.3
20191022222334 93 263 2.0 5.0 0.00 0.00 0.00 11 1016.3
20191022221837 93 282 1.0 5.0 0.00 0.00 0.00 11 1016.3
20191022221339 93 275 2.0 3.0 0.00 0.00 0.00 10 1016.3
20191022220822 93 317 1.0 3.0 0.00 0.00 0.00 11 1016.3
20191022220325 93 264 1.0 6.0 0.00 0.00 0.00 10 1016.3
20191022215828 93 279 2.0 7.0 0.00 0.00 0.00 11 1016.3
20191022215331 93 280 3.0 7.0 0.00 0.00 0.00 11 1016.5
20191022214833 93 210 2.0 5.0 0.00 0.00 0.00 11 1016.5
20191022214335 93 281 1.0 6.0 0.00 0.00 0.00 11 1016.5
20191022213820 92 288 1.0 6.0 0.00 0.00 0.00 11 1016.6
20191022213322 93 272 2.0 8.0 0.00 0.00 0.00 11 1016.6
20191022212828 92 202 2.0 9.0 0.00 0.00 0.00 11 1016.6
20191022212330 92 186 5.0 9.0 0.00 0.00 0.00 11 1016.7
20191022211836 92 277 2.0 7.0 0.00 0.00 0.00 11 1016.7
20191022211339 92 209 4.0 9.0 0.00 0.00 0.00 11 1016.7
20191022210822 92 269 4.0 9.0 0.00 0.00 0.00 11 1016.7
20191022210324 92 214 4.0 7.0 0.00 0.00 0.00 11 1016.7
20191022205827 92 280 3.0 8.0 0.00 0.00 0.00 11 1016.7
20191022205329 91 271 3.0 8.0 0.00 0.00 0.00 11 1017.0
20191022204830 92 264 4.0 6.0 0.00 0.00 0.00 11 1017.0
20191022204333 92 259 2.0 5.0 0.00 0.00 0.00 11 1017.0
20191022203836 92 266 1.0 7.0 0.00 0.00 0.00 11 1017.3
20191022203322 91 223 1.0 7.0 0.00 0.00 0.00 11 1017.3
20191022202824 92 270 3.0 5.0 0.00 0.00 0.00 11 1017.3
20191022202326 92 262 4.0 5.0 0.00 0.00 0.00 11 1017.8
20191022201832 91 269 1.0 4.0 0.00 0.00 0.00 12 1017.8
20191022201335 91 165 1.0 5.0 0.00 0.00 0.00 11 1017.8
20191022200836 91 161 0.0 7.0 0.00 0.00 0.00 11 1017.9
20191022200339 91 146 0.0 7.0 0.00 0.00 0.00 11 1017.9
20191022195822 91 225 0.0 5.0 0.00 0.00 0.00 11 1017.9
20191022195324 91 270 1.0 6.0 0.00 0.00 0.00 12 1018.4
20191022194828 90 204 0.0 7.0 0.00 0.00 0.00 13 1018.4
20191022194335 90 232 2.0 7.0 0.00 0.00 0.00 12 1018.4
20191022193821 89 132 3.0 7.0 0.00 0.00 0.00 12 1018.7
20191022193323 89 57 0.0 7.0 0.00 0.00 0.00 12 1018.7
20191022192826 89 238 1.0 7.0 0.00 0.00 0.00 12 1018.7
20191022192329 88 234 3.0 7.0 0.00 0.00 0.00 12 1019.0
20191022191831 88 258 3.0 6.0 0.00 0.00 0.00 12 1019.0
20191022191335 88 228 2.0 5.0 0.00 0.00 0.00 12 1019.0
20191022190835 88 206 3.0 5.0 0.00 0.00 0.00 13 1019.2
20191022190337 88 257 2.0 5.0 0.00 0.00 0.00 13 1019.2
20191022185819 88 270 3.0 4.0 0.00 0.00 0.00 13 1019.2
20191022185322 87 261 2.0 5.0 0.00 0.00 0.00 13 1019.6
20191022184825 87 246 3.0 5.0 0.00 0.00 0.00 13 1019.6
20191022184327 87 180 1.0 4.0 0.00 0.00 0.00 14 1019.6
20191022183834 87 263 3.0 4.0 0.00 0.00 0.00 14 1019.7
20191022183337 87 235 1.0 3.0 0.00 0.00 0.00 14 1019.7
20191022182819 86 237 0.0 3.0 0.00 0.00 0.00 15 1019.7
20191022182323 86 263 0.0 0.0 0.00 0.00 0.00 15 1020.1
20191022181825 86 298 0.0 0.0 0.00 0.00 0.00 16 1020.1
20191022181330 85 285 0.0 0.0 0.00 0.00 0.00 16 1020.1
20191022180832 85 267 0.0 0.0 0.00 0.00 0.00 17 1020.3
20191022180336 84 265 0.0 4.0 0.00 0.00 0.00 18 1020.3
20191022175840 83 147 0.0 4.0 0.00 0.00 0.00 18 1020.3
20191022175322 83 119 0.0 0.0 0.00 0.00 0.00 18 1020.4
20191022174824 83 214 0.0 0.0 0.00 0.00 0.00 19 1020.4
20191022174330 83 25 0.0 0.0 0.00 0.00 0.00 19 1020.4
20191022173833 82 36 0.0 0.0 0.00 0.00 0.00 19 1020.5
20191022173335 82 36 0.0 0.0 0.00 0.00 0.00 21 1020.5
20191022172838 81 235 0.0 0.0 0.00 0.00 0.00 19 1020.5
20191022172320 81 288 0.0 0.0 0.00 0.00 0.00 21 1019.8
20191022171823 80 30 0.0 0.0 0.00 0.00 0.00 22 1019.8
20191022171326 79 30 0.0 2.0 0.00 0.00 0.00 23 1019.8
20191022170831 79 30 0.0 2.0 0.00 0.00 0.00 23 1020.9
20191022170339 79 287 0.0 0.0 0.00 0.00 0.00 22 1020.9
20191022165821 78 304 0.0 0.0 0.00 0.00 0.00 23 1020.9
20191022165324 78 260 0.0 1.0 0.00 0.00 0.00 24 1021.0
20191022164831 78 262 0.0 1.0 0.00 0.00 0.00 24 1021.0
20191022164334 78 241 0.0 1.0 0.00 0.00 0.00 23 1021.0
20191022163837 77 219 0.0 1.0 0.00 0.00 0.00 25 1020.2
20191022163319 76 259 0.0 0.0 0.00 0.00 0.00 25 1020.2
20191022162823 75 276 0.0 0.0 0.00 0.00 0.00 25 1020.2
20191022162328 75 229 0.0 0.0 0.00 0.00 0.00 25 1020.3
20191022161830 74 229 0.0 0.0 0.00 0.00 0.00 26 1020.3
20191022161336 74 229 0.0 0.0 0.00 0.00 0.00 27 1020.3
20191022160823 73 229 0.0 0.0 0.00 0.00 0.00 27 1020.3
20191022160326 71 229 0.0 0.0 0.00 0.00 0.00 31 1020.3
20191022155830 70 229 0.0 0.0 0.00 0.00 0.00 33 1020.3
20191022155336 69 229 0.0 0.0 0.00 0.00 0.00 35 1020.1
20191022154823 68 229 0.0 0.0 0.00 0.00 0.00 35 1020.1
20191022154326 67 229 0.0 0.0 0.00 0.00 0.00 35 1020.1
20191022153829 66 162 0.0 0.0 0.00 0.00 0.00 35 1020.0
20191022153332 66 161 0.0 0.0 0.00 0.00 0.00 36 1020.0
20191022152838 65 161 0.0 0.0 0.00 0.00 0.00 36 1020.0
20191022152320 64 161 0.0 0.0 0.00 0.00 0.00 36 1020.3
20191022151823 63 113 0.0 0.0 0.00 0.00 0.00 36 1020.3
20191022151328 63 113 0.0 0.0 0.00 0.00 0.00 36 1020.3
20191022150830 62 113 0.0 0.0 0.00 0.00 0.00 38 1020.1
20191022150320 61 113 0.0 0.0 0.00 0.00 0.00 37 1020.1
20191022145824 60 113 0.0 0.0 0.00 0.00 0.00 38 1020.1
20191022145329 58 113 0.0 0.0 0.00 0.00 0.00 39 1020.1
20191022144832 57 113 0.0 0.0 0.00 0.00 0.00 41 1020.1
20191022144335 56 113 0.0 0.0 0.00 0.00 0.00 41 1020.1
20191022143839 56 114 0.0 0.0 0.00 0.00 0.00 42 1020.3
20191022143322 55 114 0.0 0.0 0.00 0.00 0.00 42 1020.3
20191022142824 54 114 0.0 0.0 0.00 0.00 0.00 46 1020.3
20191022142330 53 114 0.0 0.0 0.00 0.00 0.00 44 1019.2
20191022141832 53 114 0.0 0.0 0.00 0.00 0.00 45 1019.2
20191022141335 53 114 0.0 0.0 0.00 0.00 0.00 45 1019.2
20191022140823 53 114 0.0 0.0 0.00 0.00 0.00 44 1019.7
20191022140330 54 114 0.0 0.0 0.00 0.00 0.00 43 1019.7
20191022135834 54 114 0.0 0.0 0.00 0.00 0.00 43 1019.7
20191022135336 53 114 0.0 0.0 0.00 0.00 0.00 44 1019.7
20191022134838 53 114 0.0 0.0 0.00 0.00 0.00 43 1019.7
20191022134321 53 114 0.0 0.0 0.00 0.00 0.00 42 1019.7
20191022133826 53 114 0.0 0.0 0.00 0.00 0.00 43 1019.7
20191022133329 53 113 0.0 0.0 0.00 0.00 0.00 43 1019.7
20191022132835 53 113 0.0 0.0 0.00 0.00 0.00 43 1019.7
20191022132336 54 114 0.0 0.0 0.00 0.00 0.00 42 1019.6
20191022131838 54 114 0.0 0.0 0.00 0.00 0.00 42 1019.6
20191022131324 54 115 0.0 0.0 0.00 0.00 0.00 42 1019.6
20191022130827 54 114 0.0 0.0 0.00 0.00 0.00 40 1019.1
20191022130331 55 115 0.0 0.0 0.00 0.00 0.00 40 1019.1
20191022125834 55 114 0.0 0.0 0.00 0.00 0.00 40 1019.1
20191022125334 56 114 0.0 0.0 0.00 0.00 0.00 39 1019.8
20191022124836 56 113 0.0 0.0 0.00 0.00 0.00 39 1019.8
20191022124318 57 114 0.0 0.0 0.00 0.00 0.00 37 1019.8
20191022123824 58 113 0.0 3.0 0.00 0.00 0.00 37 1019.6
20191022123326 57 106 1.0 3.0 0.00 0.00 0.00 38 1019.6
20191022122828 57 113 1.0 3.0 0.00 0.00 0.00 38 1019.6
20191022122331 56 121 0.0 1.0 0.00 0.00 0.00 38 1018.7
20191022121817 56 152 0.0 0.0 0.00 0.00 0.00 38 1018.7
20191022121321 56 150 0.0 0.0 0.00 0.00 0.00 38 1018.7
20191022120823 56 152 0.0 2.0 0.00 0.00 0.00 38 1019.3
20191022120327 57 153 0.0 2.0 0.00 0.00 0.00 38 1019.3
20191022115830 56 136 0.0 0.0 0.00 0.00 0.00 38 1019.3
20191022115332 56 136 0.0 0.0 0.00 0.00 0.00 38 1019.3
20191022114834 56 136 0.0 0.0 0.00 0.00 0.00 38 1019.3
20191022114336 56 154 0.0 0.0 0.00 0.00 0.00 37 1019.3
20191022113838 56 162 0.0 0.0 0.00 0.00 0.00 39 1019.5
20191022113321 56 162 0.0 0.0 0.00 0.00 0.00 38 1019.5
20191022112824 56 150 0.0 0.0 0.00 0.00 0.00 38 1019.5
20191022112328 56 151 0.0 0.0 0.00 0.00 0.00 38 1019.3
20191022111834 57 151 0.0 0.0 0.00 0.00 0.00 37 1019.3
20191022111336 57 150 0.0 0.0 0.00 0.00 0.00 36 1019.3
20191022110838 57 151 0.0 0.0 0.00 0.00 0.00 36 1019.2
20191022110319 56 151 0.0 0.0 0.00 0.00 0.00 36 1019.2
20191022105821 57 67 0.0 0.0 0.00 0.00 0.00 37 1019.2
20191022105323 57 67 0.0 0.0 0.00 0.00 0.00 37 1019.4
20191022104825 57 67 0.0 0.0 0.00 0.00 0.00 37 1019.4
20191022104327 57 67 0.0 0.0 0.00 0.00 0.00 37 1019.4
20191022103831 57 67 0.0 1.0 0.00 0.00 0.00 37 1019.4
20191022103333 57 150 0.0 1.0 0.00 0.00 0.00 36 1019.4
20191022102836 57 213 0.0 2.0 0.00 0.00 0.00 36 1019.4
20191022102322 57 219 0.0 2.0 0.00 0.00 0.00 36 1019.6
20191022101824 57 159 0.0 0.0 0.00 0.00 0.00 36 1019.6
20191022101329 57 158 0.0 0.0 0.00 0.00 0.00 36 1019.6
20191022100834 57 159 0.0 0.0 0.00 0.00 0.00 36 1019.6
20191022100336 58 159 0.0 0.0 0.00 0.00 0.00 35 1019.6
20191022095821 58 159 0.0 0.0 0.00 0.00 0.00 34 1019.6
20191022095324 59 158 0.0 2.0 0.00 0.00 0.00 34 1019.6
20191022094826 59 158 0.0 2.0 0.00 0.00 0.00 33 1019.6
20191022094329 59 163 0.0 0.0 0.00 0.00 0.00 33 1019.6
20191022093831 59 149 0.0 0.0 0.00 0.00 0.00 33 1019.8
20191022093334 59 150 0.0 0.0 0.00 0.00 0.00 33 1019.8
20191022092835 59 118 0.0 0.0 0.00 0.00 0.00 34 1019.8
20191022092322 58 116 0.0 0.0 0.00 0.00 0.00 33 1019.9
20191022091827 59 116 0.0 0.0 0.00 0.00 0.00 34 1019.9
20191022091330 59 115 0.0 0.0 0.00 0.00 0.00 33 1019.9
20191022090832 59 116 0.0 0.0 0.00 0.00 0.00 33 1019.9
20191022090334 59 116 0.0 0.0 0.00 0.00 0.00 33 1019.9
20191022085839 59 138 0.0 2.0 0.00 0.00 0.00 33 1019.9
20191022085322 60 150 0.0 3.0 0.00 0.00 0.00 32 1019.9
20191022084827 60 150 0.0 0.0 0.00 0.00 0.00 33 1019.9
20191022084329 60 196 0.0 0.0 0.00 0.00 0.00 32 1019.9
20191022083831 60 182 0.0 0.0 0.00 0.00 0.00 31 1019.9
20191022083317 60 182 0.0 0.0 0.00 0.00 0.00 32 1019.9
20191022082824 60 217 0.0 0.0 0.00 0.00 0.00 31 1019.9
20191022082326 61 217 0.0 1.0 0.00 0.00 0.00 31 1019.7
20191022081829 61 117 0.0 3.0 0.00 0.00 0.00 31 1019.7
20191022081330 61 128 0.0 3.0 0.00 0.00 0.00 32 1019.7
20191022080832 61 157 0.0 0.0 0.00 0.00 0.00 30 1019.7
20191022080335 62 156 0.0 0.0 0.00 0.00 0.00 30 1019.7